{"data":{"norad_id":58210,"epoch":"2026-05-24T22:17:09.508992Z","epoch_age_seconds":91421,"freshness":"FRESH","line1":"1 58210U 23170E   26144.92858228  .00000796  00000+0  38439-4 0  9992","line2":"2 58210  43.0031 124.1460 0001148 280.9497  79.1226 15.27582822141959","mean_motion":15.27582822,"eccentricity":0.0001148,"inclination_deg":43.0031,"raan_deg":124.146,"arg_perigee_deg":280.9497,"mean_anomaly_deg":79.1226,"bstar":3.8439e-5,"rev_number":14195,"period_min":94.266574568747,"perigee_km":482.2529827757,"apogee_km":483.82830916321,"semimajor_km":6861.1776459695,"source":"CELESTRAK","updated_at":"2026-05-25T13:38:18.574699Z"}}